Погода в Тихвине

Хотите узнать прогноз погоды в Тихвине? Тогда Вам сюда: Погода в Тихвине

Поиск расширенной информации на нашем сайте:

Полезная информация:

Новости сайта



02.01.2020
Опубликован Долгосрочный прогноз погоды по городам России и ближнего зарубежья на январь 2020 года.
Карты: Прогноз на январь и февраль 2020 года, Сравнение прогнозируемой аномалии приземной температуры воздуха на январь 2020 года по разным моделям.




Погода в Тихвине - сегодня

Время (UTC), дата Ветер
(°,м/с) 
Видим.   Явления Облачность Т
(°С)
Тd
(°С)
f(%) Тe
(°С)
Pmin
(гПа)
dP
(гПа)
Po
(мм)
O2
(г/м3)
Тmin Tmax R s Состояние
почвы
12 09.08.20 270 (З) 20000 м  гроза без осадков  9/6 600 м кучево-дожд., средняя 
[Cb cap|Ac trans]
+26 +16.3 55 +37  1017.4  -0.9  758  275           
15 09.08.20 290 (З) 20000 м  в посл. час гроза  8/4 600 м кучево-дожд., средняя 
[Cb calv|Ac trans]
+24.3 +18.3 69 +39  1016.6  -0.8  757  276           
18 09.08.20 190 (Ю) 20000 м  {гроза}  4/0 средняя 
[Ac trans]
+19.4 +18.6 95 +36  1016.2  -0.5  757  280    +27.1       
21 09.08.20 210 (ЮЗ) 2000 м  дымка  ясно 
+17 +16.7 98 +30  1015.9  -0.4  756  283           
00 10.08.20 190 (Ю) 4000 м  дымка  3/0 средняя 
[Ac trans]
+15.1 +14.8 98 +24  1015.1  -0.8  756  285           
03 10.08.20 тихо ()   13000 м    9/8 720 м кучево-дожд., средняя 
[Cb cap|Ac trans]
+15.1 +14.8 98 +23  1014.8  -0.3  756  285  +14.3         
06 10.08.20 270 (З) 15000 м  в посл. час гроза  9/9 300 м 
[St]
+18.5 +17 91 +32  1014.4  -0.3  755  281  +14.3        сухая 
09 10.08.20 310 (СЗ) 20000 м    3/3 600 м 
[Cu hum]
+22.8 +14.9 61 +31  1014.3  755  278           
12 10.08.20 300 (СЗ) 30000 м    3/3 600 м 
[Cu med, cong]
+21 +12.4 58 +25  1015.1  0.7  756  280           
15 10.08.20 310 (СЗ) 3{10}  30000 м    1/1 600 м 
[Cu hum]
+19 +10.3 57 +21  1015.4  0.3  756  283           
18 10.08.20 310 (СЗ) 20000 м    3/3 1000 м 
[Sc diur, vesp]
+14.4 +9.6 73 +15  1016.4  0.7  757  288    +23       
21 10.08.20 310 (СЗ) 20000 м    10/10 1140 м 
[Sc]
+14.1 +10.5 79 +17  1016.2  -0.1  757  288           
00 11.08.20 330 (СЗ) 20000 м    10/10 660 м 
[Sc]
+13.2 +10.3 83 +15  1016.3  0.1  757  289           
03 11.08.20 310 (СЗ) 20000 м    9/9 1000 м 
[Sc]
+12.1 +9.5 84 +13  1016.4  757  290  +11.7         
06 11.08.20 310 (СЗ) 12000 м  слаб. ливневой дождь  10/8 800 м кучево-дожд., средняя 
[Cb cap|As op]
+11.6 +10.6 94 +15  1016.2  -0.1  757  290  +11.2    0.4    влажная 
09 11.08.20 310 (СЗ) 20000 м  {ливн. осадки}  9/9 660 м средняя 
[Sc|Ac trans]
+13.9 +9.8 76 +15  1016  -0.2  756  288           
12 11.08.20 310 (СЗ) 6000 м  слаб. морось{ливн. осадки}  10/10 300 м 
[St]
+12.7 +11.8 94 +16  1016.9  0.9  757  289           
15 11.08.20 340 (С) 15000 м  {морось}  10/10 480 м 
[St]
+13.4 +11.8 90 +17  1017.1  0.2  757  289      0.5     
18 11.08.20 010 (С) 10 км  {морось}  10/10 540 м 
[Sc]
+12.9 +10.9 88 +14  1018  0.9  758  290    +14  0.1     
21 11.08.20 360 (С) 20000 м    10/10 660 м 
[Sc]
+12.4 +9.8 84 +14  1018.7  0.7  758  291           
00 12.08.20 340 (С) 20000 м    8/3 600 м верхняя 
[Sc|Cc]
+11 +9.3 89 +11  1019.1  0.3  759  292           
03 12.08.20 010 (С) 18000 м    9/0 средняя 
[Ac trans]
+10.8 +9.1 89 +11  1019.5  0.4  759  293  +10.8         
06 12.08.20 010 (С) 20000 м    8/3 1000 м средняя 
[Sc|Ac trans]
+13.6 +7.2 65 +13  1020  0.6  759  290  +10.4        сухая 
09 12.08.20 010 (С) 20000 м    9/6 1000 м средняя 
[Sc|Ac trans]
+14.4 +7.9 65 +15  1020.2  0.2  760  289           
12 12.08.20 360 (С) 20000 м    8/8 1170 м 
[Sc]
+15 +8.1 63 +16  1020  -0.2  759  289           
Время (UTC), дата Ветер
(°,м/с) 
Видим.   Явления Облачность Т
(°С)
Тd
(°С)
f(%) Тe
(°С)
Pmin
(гПа)
dP
(гПа)
Po
(мм)
O2
(г/м3)
Тmin Tmax R s Состояние
почвы

Для получения пояснительной информации подведите курсор к названию столбца.

ПОГОДА в Тихвине - архив

Всё, что Вы хотите узнать о погоде в Тихвине - удобно и подробно!

Выберите нужную дату (начиная с 1 января 2019* года) и нажмите кнопку "Найти".
Будут отображены архивные сводки погоды по пункту Тихвин, начиная с указанной даты.


Отображать данные в формате CSV (для использования в таблицах Excel)


Внимание! Наш архив погоды предназначен исключительно для личного некоммерческого использования в познавательных целях. Если Вам необходимы официальные справки о состоянии погоды (для производственных, юридических, коммерческих и т.п. целей), обращайтесь в органы Росгидромета.

*Примечание: данная дата относится к архиву по метеостанциям СССР (Россия, СНГ, Балтия).
Архив по метеостанциям Зарубежной Европы и Азии (кроме Китая) хранится 10 дней, по другим регионам земного шара (Китай, Африка, Америка, Австралия, Океания) - 1 день.

Тихвин - район местоположения метеостанции


Название, широта, долгота, высота метеостанции:
Тихвин 59.6°ш. 33.6°д. 61 м над ур. моря [Российская Федерация]

Дополнительная информация

В oтличие oт бoльшинства пoгoдных сайтoв мы публикуем пoдрoбную метеoинфoрмацию в детальнoм прoфессиoнальнoм фoрмате.

Характеристики температуры и влажнoсти вoздуха измеряются на высoте 2 м в тени вдали oт зданий и деревьев.
Скoрoсть ветра измеряется на высoте 10 м (на урoвне рoста челoвека скoрoсть ветра ниже в 1.5-2 раза). Если метеoстанция нахoдится в гoрoде или в лесу, тo скoрoсть ветра занижена на 2-4 м/с пo сравнению с oткрытым местoм. Скoрoсть ветра над акватoриями крупных рек и oзёр, а также на вершинах хoлмoв на 2-5 м/с выше, чем в oбычных услoвиях.
Атмoсфернoе давление в разных тoчках местнoсти мoжет значительнo oтличаться oт давления на метеoстанции, в зависимoсти oт услoвий рельефа (при пoдъёме на 10 м давление пoнижается примернo на 1 мм рт.ст.).